Year,Month,Day,Hour,Minute,Value (Times are PST for temperature in C)
2008,08,01,00,00,10.70
2008,08,01,00,01,10.70
2008,08,01,00,02,10.70
2008,08,01,00,03,10.70
2008,08,01,00,04,10.70
2008,08,01,00,05,10.70
2008,08,01,00,06,10.70
2008,08,01,00,07,10.70
2008,08,01,00,08,10.70
2008,08,01,00,09,10.70
2008,08,01,00,10,10.70
2008,08,01,00,11,10.60
2008,08,01,00,12,10.60
2008,08,01,00,13,10.60
2008,08,01,00,14,10.50
2008,08,01,00,15,10.50
2008,08,01,00,16,10.40
2008,08,01,00,17,10.40
2008,08,01,00,18,10.40
2008,08,01,00,19,10.40
2008,08,01,00,20,10.40
2008,08,01,00,21,10.40
2008,08,01,00,22,10.40
2008,08,01,00,23,10.40
2008,08,01,00,24,10.40
2008,08,01,00,25,10.40
2008,08,01,00,26,10.40
2008,08,01,00,27,10.40
2008,08,01,00,28,10.40
2008,08,01,00,29,10.40
2008,08,01,00,30,10.40
2008,08,01,00,31,10.40
2008,08,01,00,32,10.50
2008,08,01,00,33,10.50
2008,08,01,00,34,10.50
2008,08,01,00,35,10.50
2008,08,01,00,36,10.50
2008,08,01,00,37,10.60
2008,08,01,00,38,10.60
2008,08,01,00,39,10.60
2008,08,01,00,40,10.60
2008,08,01,00,41,10.60
2008,08,01,00,42,10.60
2008,08,01,00,43,10.60
2008,08,01,00,44,10.70
2008,08,01,00,45,10.70
2008,08,01,00,46,10.70
2008,08,01,00,47,10.70
2008,08,01,00,48,10.70
2008,08,01,00,49,10.70
2008,08,01,00,50,10.70
2008,08,01,00,51,10.80
2008,08,01,00,52,10.80
2008,08,01,00,53,10.80
2008,08,01,00,54,10.80
2008,08,01,00,55,10.80
2008,08,01,00,56,10.80
2008,08,01,00,57,10.80
2008,08,01,00,58,10.80
2008,08,01,00,59,10.90
2008,08,01,01,00,10.90
2008,08,01,01,01,10.90
2008,08,01,01,02,10.90
2008,08,01,01,03,10.90
2008,08,01,01,04,10.90
2008,08,01,01,05,10.90
2008,08,01,01,06,10.90
2008,08,01,01,07,10.90
2008,08,01,01,08,10.90
2008,08,01,01,09,11.00
2008,08,01,01,10,11.00
2008,08,01,01,11,11.00
2008,08,01,01,12,11.00
2008,08,01,01,13,10.90
2008,08,01,01,14,10.90
2008,08,01,01,15,10.90
2008,08,01,01,16,10.90
2008,08,01,01,17,11.00
2008,08,01,01,18,11.00
2008,08,01,01,19,11.00
2008,08,01,01,20,11.00
2008,08,01,01,21,11.00
2008,08,01,01,22,11.00
2008,08,01,01,23,11.00
2008,08,01,01,24,11.00
2008,08,01,01,25,11.00
2008,08,01,01,26,11.00
2008,08,01,01,27,11.00
2008,08,01,01,28,11.00
2008,08,01,01,29,11.00
2008,08,01,01,30,11.00
2008,08,01,01,31,11.00
2008,08,01,01,32,11.00
2008,08,01,01,33,10.90
2008,08,01,01,34,10.90
2008,08,01,01,35,10.90
2008,08,01,01,36,10.90
2008,08,01,01,37,10.90
2008,08,01,01,38,10.90
2008,08,01,01,39,10.90
2008,08,01,01,40,10.90
2008,08,01,01,41,10.90
2008,08,01,01,42,10.90
2008,08,01,01,43,10.90
2008,08,01,01,44,10.90
2008,08,01,01,45,10.80
2008,08,01,01,46,10.80
2008,08,01,01,47,10.80
2008,08,01,01,48,10.80
2008,08,01,01,49,10.80
2008,08,01,01,50,10.80
2008,08,01,01,51,10.80
2008,08,01,01,52,10.80
2008,08,01,01,53,10.80
2008,08,01,01,54,10.80
2008,08,01,01,55,10.80
2008,08,01,01,56,10.80
2008,08,01,01,57,10.80
2008,08,01,01,58,10.80
2008,08,01,01,59,10.80
2008,08,01,02,00,10.70
2008,08,01,02,01,10.70
2008,08,01,02,02,10.70
2008,08,01,02,03,10.70
2008,08,01,02,04,10.70
2008,08,01,02,05,10.70
2008,08,01,02,06,10.70
2008,08,01,02,07,10.60
2008,08,01,02,08,10.60
2008,08,01,02,09,10.60
2008,08,01,02,10,10.60
2008,08,01,02,11,10.60
2008,08,01,02,12,10.60
2008,08,01,02,13,10.60
2008,08,01,02,14,10.50
2008,08,01,02,15,10.50
2008,08,01,02,16,10.50
2008,08,01,02,17,10.50
2008,08,01,02,18,10.50
2008,08,01,02,19,10.50
2008,08,01,02,20,10.50
2008,08,01,02,21,10.50
2008,08,01,02,22,10.50
2008,08,01,02,23,10.40
2008,08,01,02,24,10.40
2008,08,01,02,25,10.40
2008,08,01,02,26,10.40
2008,08,01,02,27,10.40
2008,08,01,02,28,10.40
2008,08,01,02,29,10.40
2008,08,01,02,30,10.40
2008,08,01,02,31,10.40
2008,08,01,02,32,10.30
2008,08,01,02,33,10.40
2008,08,01,02,34,10.30
2008,08,01,02,35,10.30
2008,08,01,02,36,10.30
2008,08,01,02,37,10.30
2008,08,01,02,38,10.30
2008,08,01,02,39,10.30
2008,08,01,02,40,10.30
2008,08,01,02,41,10.30
2008,08,01,02,42,10.30
2008,08,01,02,43,10.30
2008,08,01,02,44,10.30
2008,08,01,02,45,10.30
2008,08,01,02,46,10.30
2008,08,01,02,47,10.30
2008,08,01,02,48,10.20
2008,08,01,02,49,10.20
2008,08,01,02,50,10.20
2008,08,01,02,51,10.20
2008,08,01,02,52,10.20
2008,08,01,02,53,10.20
2008,08,01,02,54,10.20
2008,08,01,02,55,10.20
2008,08,01,02,56,10.20
2008,08,01,02,57,10.20
2008,08,01,02,58,10.20
2008,08,01,02,59,10.20
2008,08,01,03,00,10.20
2008,08,01,03,01,10.10
2008,08,01,03,02,10.10
2008,08,01,03,03,10.10
2008,08,01,03,04,10.10
2008,08,01,03,05,10.10
2008,08,01,03,06,10.10
2008,08,01,03,07,10.10
2008,08,01,03,08,10.10
2008,08,01,03,09,10.10
2008,08,01,03,10,10.10
2008,08,01,03,11,10.10
2008,08,01,03,12,10.10
2008,08,01,03,13,10.10
2008,08,01,03,14,10.10
2008,08,01,03,15,10.10
2008,08,01,03,16,10.10
2008,08,01,03,17,10.10
2008,08,01,03,18,10.10
2008,08,01,03,19,10.10
2008,08,01,03,20,10.10
2008,08,01,03,21,10.10
2008,08,01,03,22,10.10
2008,08,01,03,23,10.10
2008,08,01,03,24,10.10
2008,08,01,03,25,10.00
2008,08,01,03,26,10.00
2008,08,01,03,27,10.00
2008,08,01,03,28,10.00
2008,08,01,03,29,10.00
2008,08,01,03,30,10.00
2008,08,01,03,31,10.00
2008,08,01,03,32,10.00
2008,08,01,03,33,10.00
2008,08,01,03,34,9.90
2008,08,01,03,35,9.90
2008,08,01,03,36,9.90
2008,08,01,03,37,9.90
2008,08,01,03,38,9.90
2008,08,01,03,39,9.90
2008,08,01,03,40,9.90
2008,08,01,03,41,9.90
2008,08,01,03,42,10.00
2008,08,01,03,43,10.00
2008,08,01,03,44,10.00
2008,08,01,03,45,10.00
2008,08,01,03,46,10.00
2008,08,01,03,47,10.10
2008,08,01,03,48,10.10
2008,08,01,03,49,10.10
2008,08,01,03,50,10.10
2008,08,01,03,51,10.10
2008,08,01,03,52,10.10
2008,08,01,03,53,10.10
2008,08,01,03,54,10.10
2008,08,01,03,55,10.10
2008,08,01,03,56,10.10
2008,08,01,03,57,10.10
2008,08,01,03,58,10.10
2008,08,01,03,59,10.20
2008,08,01,04,00,10.20
2008,08,01,04,01,10.20
2008,08,01,04,02,10.20
2008,08,01,04,03,10.20
2008,08,01,04,04,10.20
2008,08,01,04,05,10.20
2008,08,01,04,06,10.10
2008,08,01,04,07,10.10
2008,08,01,04,08,10.10
2008,08,01,04,09,10.00
2008,08,01,04,10,9.90
2008,08,01,04,13,9.80
2008,08,01,04,32,9.70
2008,08,01,04,40,9.70
2008,08,01,04,41,9.70
2008,08,01,04,42,9.70
2008,08,01,04,43,9.70
2008,08,01,04,44,9.70
2008,08,01,04,45,9.80
2008,08,01,04,46,9.80
2008,08,01,04,47,9.80
2008,08,01,04,48,9.80
2008,08,01,04,49,9.80
2008,08,01,04,50,9.80
2008,08,01,04,51,9.80
2008,08,01,04,52,9.80
2008,08,01,04,53,9.80
2008,08,01,04,54,9.80
2008,08,01,04,55,9.80
2008,08,01,04,56,9.80
2008,08,01,04,57,9.80
2008,08,01,04,58,9.80
2008,08,01,04,59,9.80
2008,08,01,05,00,9.80
2008,08,01,05,01,9.90
2008,08,01,05,02,9.90
2008,08,01,05,03,9.90
2008,08,01,05,04,9.90
2008,08,01,05,05,9.90
2008,08,01,05,06,9.90
2008,08,01,05,07,9.90
2008,08,01,05,08,9.90
2008,08,01,05,09,9.90
2008,08,01,05,10,9.90
2008,08,01,05,11,9.90
2008,08,01,05,12,9.90
2008,08,01,05,13,9.90
2008,08,01,05,14,9.80
2008,08,01,05,15,9.80
2008,08,01,05,16,9.80
2008,08,01,05,17,9.80
2008,08,01,05,18,9.80
2008,08,01,05,19,9.80
2008,08,01,05,20,9.80
2008,08,01,05,21,9.80
2008,08,01,05,22,9.70
2008,08,01,05,23,9.70
2008,08,01,05,24,9.70
2008,08,01,05,25,9.70
2008,08,01,05,26,9.70
2008,08,01,05,27,9.70
2008,08,01,05,28,9.70
2008,08,01,05,29,9.70
2008,08,01,05,30,9.70
2008,08,01,05,31,9.70
2008,08,01,05,32,9.70
2008,08,01,05,33,9.70
2008,08,01,05,34,9.70
2008,08,01,05,35,9.70
2008,08,01,05,36,9.70
2008,08,01,05,37,9.70
2008,08,01,05,38,9.70
2008,08,01,05,39,9.70
2008,08,01,05,40,9.70
2008,08,01,05,41,9.70
2008,08,01,05,42,9.70
2008,08,01,05,43,9.70
2008,08,01,05,44,9.70
2008,08,01,05,45,9.70
2008,08,01,05,46,9.70
2008,08,01,05,47,9.70
2008,08,01,05,48,9.70
2008,08,01,05,49,9.60
2008,08,01,05,50,9.60
2008,08,01,05,51,9.60
2008,08,01,05,52,9.60
2008,08,01,05,53,9.60
2008,08,01,05,54,9.60
2008,08,01,05,55,9.60
2008,08,01,05,56,9.60
2008,08,01,05,57,9.60
2008,08,01,05,58,9.60
2008,08,01,05,59,9.60
2008,08,01,06,00,9.60
2008,08,01,06,01,9.60
2008,08,01,06,02,9.60
2008,08,01,06,03,9.60
2008,08,01,06,04,9.60
2008,08,01,06,05,9.60
2008,08,01,06,06,9.60
2008,08,01,06,07,9.60
2008,08,01,06,08,9.60
2008,08,01,06,09,9.60
2008,08,01,06,10,9.60
2008,08,01,06,11,9.60
2008,08,01,06,12,9.60
2008,08,01,06,13,9.60
2008,08,01,06,14,9.60
2008,08,01,06,15,9.60
2008,08,01,06,16,9.60
2008,08,01,06,17,9.60
2008,08,01,06,18,9.60
2008,08,01,06,19,9.60
2008,08,01,06,20,9.70
2008,08,01,06,21,9.70
2008,08,01,06,22,9.70
2008,08,01,06,23,9.80
2008,08,01,06,24,9.80
2008,08,01,06,25,9.80
2008,08,01,06,26,9.80
2008,08,01,06,27,9.80
2008,08,01,06,28,9.80
2008,08,01,06,29,9.80
2008,08,01,06,30,9.90
2008,08,01,06,31,9.90
2008,08,01,06,32,9.90
2008,08,01,06,33,9.90
2008,08,01,06,34,9.90
2008,08,01,06,35,9.90
2008,08,01,06,36,9.90
2008,08,01,06,37,10.00
2008,08,01,06,38,10.00
2008,08,01,06,39,10.00
2008,08,01,06,40,10.10
2008,08,01,06,41,10.10
2008,08,01,06,42,10.10
2008,08,01,06,43,10.10
2008,08,01,06,44,10.10
2008,08,01,06,45,10.10
2008,08,01,06,46,10.10
2008,08,01,06,47,10.20
2008,08,01,06,48,10.20
2008,08,01,06,49,10.20
2008,08,01,06,50,10.20
2008,08,01,06,51,10.30
2008,08,01,06,52,10.30
2008,08,01,06,53,10.30
2008,08,01,06,54,10.40
2008,08,01,06,55,10.40
2008,08,01,06,56,10.50
2008,08,01,06,57,10.50
2008,08,01,06,58,10.50
2008,08,01,06,59,10.50
2008,08,01,07,00,10.60
2008,08,01,07,01,10.60
2008,08,01,07,02,10.60
2008,08,01,07,03,10.70
2008,08,01,07,04,10.70
2008,08,01,07,05,10.70
2008,08,01,07,06,10.70
2008,08,01,07,07,10.70
2008,08,01,07,08,10.70
2008,08,01,07,09,10.80
2008,08,01,07,10,10.80
2008,08,01,07,11,10.80
2008,08,01,07,12,10.80
2008,08,01,07,13,10.80
2008,08,01,07,14,10.90
2008,08,01,07,15,10.90
2008,08,01,07,16,10.90
2008,08,01,07,17,11.00
2008,08,01,07,18,11.00
2008,08,01,07,19,11.10
2008,08,01,07,20,11.10
2008,08,01,07,21,11.10
2008,08,01,07,22,11.20
2008,08,01,07,23,11.20
2008,08,01,07,24,11.30
2008,08,01,07,25,11.30
2008,08,01,07,26,11.30
2008,08,01,07,27,11.30
2008,08,01,07,28,11.40
2008,08,01,07,29,11.40
2008,08,01,07,30,11.50
2008,08,01,07,31,11.60
2008,08,01,07,32,11.60
2008,08,01,07,33,11.70
2008,08,01,07,34,11.80
2008,08,01,07,35,11.80
2008,08,01,07,36,11.80
2008,08,01,07,37,11.90
2008,08,01,07,38,11.90
2008,08,01,07,39,12.00
2008,08,01,07,40,12.00
2008,08,01,07,41,12.10
2008,08,01,07,42,12.10
2008,08,01,07,43,12.10
2008,08,01,07,44,12.20
2008,08,01,07,45,12.20
2008,08,01,07,46,12.30
2008,08,01,07,47,12.40
2008,08,01,07,48,12.50
2008,08,01,07,49,12.60
2008,08,01,07,50,12.70
2008,08,01,07,51,12.70
2008,08,01,07,52,12.80
2008,08,01,07,53,12.90
2008,08,01,07,54,12.90
2008,08,01,07,55,13.00
2008,08,01,07,56,13.00
2008,08,01,07,57,13.10
2008,08,01,07,58,13.20
2008,08,01,07,59,13.20
2008,08,01,08,00,13.30
2008,08,01,08,01,13.30
2008,08,01,08,02,13.40
2008,08,01,08,03,13.40
2008,08,01,08,04,13.40
2008,08,01,08,05,13.40
2008,08,01,08,06,13.40
2008,08,01,08,07,13.40
2008,08,01,08,08,13.40
2008,08,01,08,09,13.40
2008,08,01,08,10,13.40
2008,08,01,08,11,13.40
2008,08,01,08,12,13.40
2008,08,01,08,13,13.40
2008,08,01,08,14,13.30
2008,08,01,08,15,13.30
2008,08,01,08,16,13.30
2008,08,01,08,17,13.20
2008,08,01,08,18,13.20
2008,08,01,08,19,13.20
2008,08,01,08,20,13.10
2008,08,01,08,21,12.90
2008,08,01,08,22,12.80
2008,08,01,08,23,12.70
2008,08,01,08,24,12.60
2008,08,01,08,25,12.50
2008,08,01,08,26,12.50
2008,08,01,08,27,12.50
2008,08,01,08,28,12.50
2008,08,01,08,29,12.60
2008,08,01,08,30,12.60
2008,08,01,08,31,12.60
2008,08,01,08,32,12.60
2008,08,01,08,33,12.60
2008,08,01,08,34,12.60
2008,08,01,08,35,12.60
2008,08,01,08,36,12.70
2008,08,01,08,37,12.70
2008,08,01,08,38,12.70
2008,08,01,08,39,12.70
2008,08,01,08,40,12.70
2008,08,01,08,41,12.70
2008,08,01,08,42,12.60
2008,08,01,08,43,12.60
2008,08,01,08,44,12.60
2008,08,01,08,45,12.60
2008,08,01,08,46,12.60
2008,08,01,08,47,12.50
2008,08,01,08,48,12.50
2008,08,01,08,49,12.40
2008,08,01,08,50,12.30
2008,08,01,08,51,12.30
2008,08,01,08,52,12.20
2008,08,01,08,53,12.20
2008,08,01,08,54,12.10
2008,08,01,08,55,12.00
2008,08,01,08,56,12.00
2008,08,01,08,57,11.90
2008,08,01,08,58,11.90
2008,08,01,08,59,11.80
2008,08,01,09,00,11.80
2008,08,01,09,01,11.80
2008,08,01,09,02,11.80
2008,08,01,09,03,11.80
2008,08,01,09,04,11.70
2008,08,01,09,05,11.70
2008,08,01,09,06,11.70
2008,08,01,09,07,11.70
2008,08,01,09,08,11.80
2008,08,01,09,09,11.80
2008,08,01,09,10,11.80
2008,08,01,09,11,11.80
2008,08,01,09,12,11.90
2008,08,01,09,13,11.90
2008,08,01,09,14,11.90
2008,08,01,09,15,12.00
2008,08,01,09,16,12.00
2008,08,01,09,17,12.10
2008,08,01,09,18,12.10
2008,08,01,09,19,12.10
2008,08,01,09,20,12.20
2008,08,01,09,21,12.30
2008,08,01,09,22,12.30
2008,08,01,09,23,12.40
2008,08,01,09,24,12.40
2008,08,01,09,25,12.50
2008,08,01,09,26,12.50
2008,08,01,09,27,12.60
2008,08,01,09,28,12.60
2008,08,01,09,29,12.70
2008,08,01,09,30,12.70
2008,08,01,09,31,12.80
2008,08,01,09,32,12.80
2008,08,01,09,33,12.90
2008,08,01,09,34,12.90
2008,08,01,09,35,13.00
2008,08,01,09,36,13.10
2008,08,01,09,37,13.10
2008,08,01,09,38,13.20
2008,08,01,09,39,13.20
2008,08,01,09,40,13.20
2008,08,01,09,41,13.20
2008,08,01,09,42,13.30
2008,08,01,09,43,13.30
2008,08,01,09,44,13.30
2008,08,01,09,45,13.40
2008,08,01,09,46,13.40
2008,08,01,09,47,13.40
2008,08,01,09,48,13.50
2008,08,01,09,49,13.50
2008,08,01,09,50,13.50
2008,08,01,09,51,13.60
2008,08,01,09,52,13.60
2008,08,01,09,53,13.70
2008,08,01,09,54,13.70
2008,08,01,09,55,13.80
2008,08,01,09,56,13.80
2008,08,01,09,57,13.90
2008,08,01,09,58,13.90
2008,08,01,09,59,14.00
2008,08,01,10,00,14.00
2008,08,01,10,01,14.10
2008,08,01,10,02,14.10
2008,08,01,10,03,14.20
2008,08,01,10,04,14.30
2008,08,01,10,05,14.30
2008,08,01,10,06,14.30
2008,08,01,10,07,14.30
2008,08,01,10,08,14.40
2008,08,01,10,09,14.40
2008,08,01,10,10,14.40
2008,08,01,10,11,14.50
2008,08,01,10,12,14.50
2008,08,01,10,13,14.60
2008,08,01,10,14,14.60
2008,08,01,10,15,14.50
2008,08,01,10,16,14.50
2008,08,01,10,17,14.50
2008,08,01,10,18,14.40
2008,08,01,10,19,14.30
2008,08,01,10,20,14.20
2008,08,01,10,21,14.10
2008,08,01,10,22,14.00
2008,08,01,10,23,13.90
2008,08,01,10,24,13.90
2008,08,01,10,25,13.80
2008,08,01,10,26,13.70
2008,08,01,10,27,13.80
2008,08,01,10,28,13.80
2008,08,01,10,29,13.80
2008,08,01,10,30,13.90
2008,08,01,10,31,13.90
2008,08,01,10,32,14.00
2008,08,01,10,33,14.00
2008,08,01,10,34,14.10
2008,08,01,10,35,14.10
2008,08,01,10,36,14.20
2008,08,01,10,37,14.30
2008,08,01,10,38,14.30
2008,08,01,10,39,14.40
2008,08,01,10,40,14.40
2008,08,01,10,41,14.40
2008,08,01,10,42,14.50
2008,08,01,10,43,14.60
2008,08,01,10,44,14.70
2008,08,01,10,45,14.80
2008,08,01,10,46,14.80
2008,08,01,10,47,15.00
2008,08,01,10,48,15.00
2008,08,01,10,49,15.00
2008,08,01,10,50,15.00
2008,08,01,10,51,15.00
2008,08,01,10,52,14.90
2008,08,01,10,53,14.80
2008,08,01,10,54,14.80
2008,08,01,10,55,14.80
2008,08,01,10,56,14.70
2008,08,01,10,57,14.60
2008,08,01,10,58,14.60
2008,08,01,10,59,14.60
2008,08,01,11,00,14.60
2008,08,01,11,01,14.60
2008,08,01,11,02,14.60
2008,08,01,11,03,14.60
2008,08,01,11,04,14.60
2008,08,01,11,05,14.60
2008,08,01,11,06,14.60
2008,08,01,11,07,14.70
2008,08,01,11,08,14.70
2008,08,01,11,09,14.80
2008,08,01,11,10,15.00
2008,08,01,11,11,15.00
2008,08,01,11,12,15.00
2008,08,01,11,13,15.00
2008,08,01,11,14,15.10
2008,08,01,11,15,15.00
2008,08,01,11,16,15.00
2008,08,01,11,17,15.00
2008,08,01,11,18,15.00
2008,08,01,11,19,14.90
2008,08,01,11,20,14.80
2008,08,01,11,21,14.80
2008,08,01,11,22,14.90
2008,08,01,11,23,14.90
2008,08,01,11,24,14.90
2008,08,01,11,25,14.90
2008,08,01,11,26,14.90
2008,08,01,11,27,14.90
2008,08,01,11,28,15.00
2008,08,01,11,29,15.00
2008,08,01,11,30,15.00
2008,08,01,11,31,15.00
2008,08,01,11,32,14.90
2008,08,01,11,33,14.90
2008,08,01,11,34,14.90
2008,08,01,11,35,14.90
2008,08,01,11,36,14.90
2008,08,01,11,37,15.00
2008,08,01,11,38,15.00
2008,08,01,11,39,15.00
2008,08,01,11,40,15.00
2008,08,01,11,41,15.10
2008,08,01,11,42,15.20
2008,08,01,11,43,15.30
2008,08,01,11,44,15.40
2008,08,01,11,45,15.50
2008,08,01,11,46,15.40
2008,08,01,11,47,15.40
2008,08,01,11,48,15.40
2008,08,01,11,49,15.50
2008,08,01,11,50,15.60
2008,08,01,11,51,15.60
2008,08,01,11,52,15.60
2008,08,01,11,53,15.60
2008,08,01,11,54,15.60
2008,08,01,11,55,15.60
2008,08,01,11,56,15.60
2008,08,01,11,57,15.60
2008,08,01,11,58,15.60
2008,08,01,11,59,15.50
2008,08,01,12,00,15.40
2008,08,01,12,01,15.30
2008,08,01,12,02,15.30
2008,08,01,12,03,15.20
2008,08,01,12,04,15.10
2008,08,01,12,05,15.10
2008,08,01,12,06,15.10
2008,08,01,12,07,15.20
2008,08,01,12,08,15.30
2008,08,01,12,09,15.30
2008,08,01,12,10,15.40
2008,08,01,12,11,15.40
2008,08,01,12,12,15.40
2008,08,01,12,13,15.30
2008,08,01,12,14,15.20
2008,08,01,12,15,15.20
2008,08,01,12,16,15.20
2008,08,01,12,17,15.20
2008,08,01,12,18,15.30
2008,08,01,12,19,15.40
2008,08,01,12,20,15.50
2008,08,01,12,21,15.50
2008,08,01,12,22,15.60
2008,08,01,12,23,15.60
2008,08,01,12,24,15.60
2008,08,01,12,25,15.60
2008,08,01,12,26,15.70
2008,08,01,12,27,15.80
2008,08,01,12,28,15.80
2008,08,01,12,29,15.80
2008,08,01,12,30,15.90
2008,08,01,12,31,15.90
2008,08,01,12,32,15.90
2008,08,01,12,33,15.80
2008,08,01,12,34,15.80
2008,08,01,12,35,15.80
2008,08,01,12,36,15.70
2008,08,01,12,37,15.80
2008,08,01,12,38,15.80
2008,08,01,12,39,15.80
2008,08,01,12,40,15.90
2008,08,01,12,41,16.00
2008,08,01,12,42,16.00
2008,08,01,12,43,16.00
2008,08,01,12,44,15.90
2008,08,01,12,45,15.80
2008,08,01,12,46,15.80
2008,08,01,12,47,15.80
2008,08,01,12,48,15.80
2008,08,01,12,49,15.90
2008,08,01,12,50,15.90
2008,08,01,12,51,15.90
2008,08,01,12,52,15.90
2008,08,01,12,53,15.90
2008,08,01,12,54,15.90
2008,08,01,12,55,15.90
2008,08,01,12,56,15.90
2008,08,01,12,57,15.90
2008,08,01,12,58,15.90
2008,08,01,12,59,16.00
2008,08,01,13,00,16.10
2008,08,01,13,01,16.20
2008,08,01,13,02,16.10
2008,08,01,13,03,16.00
2008,08,01,13,04,15.80
2008,08,01,13,05,15.70
2008,08,01,13,06,15.70
2008,08,01,13,07,15.80
2008,08,01,13,08,15.80
2008,08,01,13,09,15.80
2008,08,01,13,10,15.80
2008,08,01,13,11,15.70
2008,08,01,13,12,15.60
2008,08,01,13,13,15.30
2008,08,01,13,14,15.00
2008,08,01,13,15,15.00
2008,08,01,13,16,15.00
2008,08,01,13,17,15.00
2008,08,01,13,18,15.00
2008,08,01,13,19,15.00
2008,08,01,13,20,15.00
2008,08,01,13,21,15.00
2008,08,01,13,22,15.00
2008,08,01,13,23,15.00
2008,08,01,13,24,15.10
2008,08,01,13,25,15.20
2008,08,01,13,26,15.20
2008,08,01,13,27,15.20
2008,08,01,13,28,15.20
2008,08,01,13,29,15.20
2008,08,01,13,30,15.30
2008,08,01,13,31,15.50
2008,08,01,13,32,15.70
2008,08,01,13,33,15.90
2008,08,01,13,34,16.10
2008,08,01,13,35,16.20
2008,08,01,13,36,16.30
2008,08,01,13,37,16.30
2008,08,01,13,38,16.40
2008,08,01,13,39,16.50
2008,08,01,13,40,16.50
2008,08,01,13,41,16.50
2008,08,01,13,42,16.60
2008,08,01,13,43,16.60
2008,08,01,13,44,16.60
2008,08,01,13,45,16.60
2008,08,01,13,46,16.90
2008,08,01,13,47,17.20
2008,08,01,13,48,17.40
2008,08,01,13,49,17.70
2008,08,01,13,50,17.90
2008,08,01,13,51,18.10
2008,08,01,13,52,18.20
2008,08,01,13,53,18.40
2008,08,01,13,54,18.60
2008,08,01,13,55,18.60
2008,08,01,13,56,18.60
2008,08,01,13,57,18.50
2008,08,01,13,58,18.50
2008,08,01,13,59,18.40
2008,08,01,14,00,18.30
2008,08,01,14,01,18.10
2008,08,01,14,02,18.00
2008,08,01,14,03,17.90
2008,08,01,14,04,17.90
2008,08,01,14,05,17.90
2008,08,01,14,06,17.60
2008,08,01,14,07,17.40
2008,08,01,14,08,17.30
2008,08,01,14,09,17.30
2008,08,01,14,10,17.40
2008,08,01,14,11,17.40
2008,08,01,14,12,17.50
2008,08,01,14,13,17.60
2008,08,01,14,14,17.60
2008,08,01,14,15,17.70
2008,08,01,14,16,17.70
2008,08,01,14,17,17.80
2008,08,01,14,18,17.90
2008,08,01,14,19,18.10
2008,08,01,14,20,18.30
2008,08,01,14,21,18.40
2008,08,01,14,22,18.60
2008,08,01,14,23,18.80
2008,08,01,14,24,18.90
2008,08,01,14,25,19.00
2008,08,01,14,26,19.00
2008,08,01,14,27,19.10
2008,08,01,14,28,19.20
2008,08,01,14,29,19.30
2008,08,01,14,30,19.30
2008,08,01,14,31,19.40
2008,08,01,14,32,19.40
2008,08,01,14,33,19.40
2008,08,01,14,34,19.40
2008,08,01,14,35,19.40
2008,08,01,14,36,19.50
2008,08,01,14,37,19.40
2008,08,01,14,38,19.40
2008,08,01,14,39,19.40
2008,08,01,14,40,19.40
2008,08,01,14,41,19.40
2008,08,01,14,42,19.40
2008,08,01,14,43,19.40
2008,08,01,14,44,19.40
2008,08,01,14,45,19.40
2008,08,01,14,46,19.30
2008,08,01,14,47,19.30
2008,08,01,14,48,19.30
2008,08,01,14,49,19.30
2008,08,01,14,50,19.30
2008,08,01,14,51,19.30
2008,08,01,14,52,19.20
2008,08,01,14,53,19.10
2008,08,01,14,54,19.10
2008,08,01,14,55,19.00
2008,08,01,14,56,18.90
2008,08,01,14,57,18.90
2008,08,01,14,58,18.90
2008,08,01,14,59,18.90
2008,08,01,15,00,18.90
2008,08,01,15,01,18.90
2008,08,01,15,02,18.80
2008,08,01,15,03,18.80
2008,08,01,15,04,18.70
2008,08,01,15,05,18.60
2008,08,01,15,06,18.40
2008,08,01,15,07,18.30
2008,08,01,15,08,18.20
2008,08,01,15,09,18.20
2008,08,01,15,10,18.20
2008,08,01,15,11,18.10
2008,08,01,15,12,18.10
2008,08,01,15,13,18.00
2008,08,01,15,14,18.00
2008,08,01,15,15,18.00
2008,08,01,15,16,18.00
2008,08,01,15,17,18.00
2008,08,01,15,18,17.90
2008,08,01,15,19,17.90
2008,08,01,15,20,17.90
2008,08,01,15,21,17.90
2008,08,01,15,22,18.00
2008,08,01,15,23,18.00
2008,08,01,15,24,18.10
2008,08,01,15,25,18.10
2008,08,01,15,26,18.10
2008,08,01,15,27,18.20
2008,08,01,15,28,18.30
2008,08,01,15,29,18.40
2008,08,01,15,30,18.50
2008,08,01,15,31,18.60
2008,08,01,15,32,18.70
2008,08,01,15,33,18.80
2008,08,01,15,34,18.90
2008,08,01,15,35,18.90
2008,08,01,15,36,19.00
2008,08,01,15,37,19.00
2008,08,01,15,38,19.10
2008,08,01,15,39,19.20
2008,08,01,15,40,19.20
2008,08,01,15,41,19.30
2008,08,01,15,42,19.40
2008,08,01,15,43,19.40
2008,08,01,15,44,19.40
2008,08,01,15,45,19.40
2008,08,01,15,46,19.40
2008,08,01,15,47,19.40
2008,08,01,15,48,19.30
2008,08,01,15,49,19.30
2008,08,01,15,50,19.30
2008,08,01,15,51,19.40
2008,08,01,15,52,19.30
2008,08,01,15,53,19.30
2008,08,01,15,54,19.30
2008,08,01,15,55,19.30
2008,08,01,15,56,19.40
2008,08,01,15,57,19.40
2008,08,01,15,58,19.40
2008,08,01,15,59,19.30
2008,08,01,16,00,19.30
2008,08,01,16,01,19.30
2008,08,01,16,02,19.30
2008,08,01,16,03,19.20
2008,08,01,16,04,19.20
2008,08,01,16,05,19.30
2008,08,01,16,06,19.30
2008,08,01,16,07,19.30
2008,08,01,16,08,19.30
2008,08,01,16,09,19.30
2008,08,01,16,10,19.30
2008,08,01,16,11,19.30
2008,08,01,16,12,19.40
2008,08,01,16,13,19.40
2008,08,01,16,14,19.40
2008,08,01,16,15,19.40
2008,08,01,16,16,19.40
2008,08,01,16,17,19.30
2008,08,01,16,18,19.30
2008,08,01,16,19,19.30
2008,08,01,16,20,19.40
2008,08,01,16,21,19.40
2008,08,01,16,22,19.50
2008,08,01,16,23,19.60
2008,08,01,16,24,19.60
2008,08,01,16,25,19.60
2008,08,01,16,26,19.60
2008,08,01,16,27,19.60
2008,08,01,16,28,19.60
2008,08,01,16,29,19.70
2008,08,01,16,30,19.80
2008,08,01,16,31,19.80
2008,08,01,16,32,19.70
2008,08,01,16,33,19.70
2008,08,01,16,34,19.70
2008,08,01,16,35,19.70
2008,08,01,16,36,19.70
2008,08,01,16,37,19.70
2008,08,01,16,38,19.70
2008,08,01,16,39,19.70
2008,08,01,16,40,19.70
2008,08,01,16,41,19.80
2008,08,01,16,42,19.80
2008,08,01,16,43,19.90
2008,08,01,16,44,20.00
2008,08,01,16,45,20.10
2008,08,01,16,46,20.10
2008,08,01,16,47,20.20
2008,08,01,16,48,20.20
2008,08,01,16,49,20.20
2008,08,01,16,50,20.10
2008,08,01,16,51,20.00
2008,08,01,16,52,19.90
2008,08,01,16,53,19.80
2008,08,01,16,54,19.80
2008,08,01,16,55,19.80
2008,08,01,16,56,19.80
2008,08,01,16,57,19.80
2008,08,01,16,58,19.80
2008,08,01,16,59,19.70
2008,08,01,17,00,19.60
2008,08,01,17,01,19.50
2008,08,01,17,02,19.40
2008,08,01,17,03,19.40
2008,08,01,17,04,19.40
2008,08,01,17,05,19.30
2008,08,01,17,06,19.30
2008,08,01,17,07,19.30
2008,08,01,17,08,19.30
2008,08,01,17,09,19.20
2008,08,01,17,10,19.20
2008,08,01,17,11,19.30
2008,08,01,17,12,19.30
2008,08,01,17,13,19.30
2008,08,01,17,14,19.30
2008,08,01,17,15,19.40
2008,08,01,17,16,19.40
2008,08,01,17,17,19.50
2008,08,01,17,18,19.60
2008,08,01,17,19,19.70
2008,08,01,17,20,19.70
2008,08,01,17,21,19.70
2008,08,01,17,22,19.80
2008,08,01,17,23,19.70
2008,08,01,17,24,19.70
2008,08,01,17,25,19.70
2008,08,01,17,26,19.70
2008,08,01,17,27,19.70
2008,08,01,17,28,19.70
2008,08,01,17,29,19.80
2008,08,01,17,30,19.80
2008,08,01,17,31,19.80
2008,08,01,17,32,19.80
2008,08,01,17,33,19.80
2008,08,01,17,34,19.70
2008,08,01,17,35,19.70
2008,08,01,17,36,19.60
2008,08,01,17,37,19.60
2008,08,01,17,38,19.60
2008,08,01,17,39,19.50
2008,08,01,17,40,19.50
2008,08,01,17,41,19.50
2008,08,01,17,42,19.40
2008,08,01,17,43,19.30
2008,08,01,17,44,19.30
2008,08,01,17,45,19.20
2008,08,01,17,46,19.20
2008,08,01,17,47,19.10
2008,08,01,17,48,19.10
2008,08,01,17,49,19.10
2008,08,01,17,50,19.00
2008,08,01,17,51,19.00
2008,08,01,17,52,19.00